Probability
0 0 0 0 0 0 0 0 0 0 0 0 0 0 0 0 0 0 0 0 0 0 0 0 0 0 0 0 0 0 0 0 0 0 0 0 0 0 0 0 0 0 0 0
0 0 0 0 0 0 0 0 0 0 0 0 0 0 0 0 0 0 0 0 0 0 0 0 0 0 0 0 0 0 0 0 0 0 0 0 0 0 0 0 0 0 0 0
0 0 0 0 0 0 0 0 0 0 0 0 0 0 0 0 0 0 0 0 0 0 0 0 0 0 0 0 0 0 0 0 0 1 0 0 0 0 0 0 0 0 0 0
0 0 0 0 0 0 0 0 0 0 0 0 0 0 0 0 0 0 0 0 0 0 0 0 0 0 0 0 0 0 0 0 0 0 0 0 0 0 0 0 0 0 0 0
0 0 0 0 0 0 0 0 0 0 0 0 0 0 0 0 0 0 0 0 0 0 0 0 0 0 0 0 0 0 0 0 0 0 0 0 0 0 0 0 0 0 0 0
0 0 0 0 0 0 0 0 0 0 0 0 0 0 0 0 0 0 0 0 0 0 0 0 0 0 0 0 0 0 0 0 0 0 0 0 0 0 0 0 0 0 0 0
0 0 0 0 0 0 0 0 0 0 0 0 0 0 0 0 0 0 0 0 0 0 0 0 0 0 0 0 0 0 0 0 0 0 0 0 0 0 0 0 0 0 0 0
0 0 0 0 0 0 0 0 0 0 0 0 0 0 0 0 0 0 0 0 0 0 0 0 0 0 0 0 0 0 0 0 0 0 0 0 0 0 0 0 0 0 0 0
0 0 0 0 0 0 0 0 0 0 0 0 0 0 0 0 0 0 0 0 0 0 0 0 0 0 0 0 0 0 0 0 0 0 0 0 0 0 0 0 0 0 0 0
0 0 0 0 0 0 0 0 0 0 0 0 0 0 0 0 0 0 0 0 0 0 0 0 0 0 0 0 0 0 0 0 0 0 0 0 0 0 0 0 0 0 0 0
0 0 0 0 0 0 0 0 0 0 0 0 0 0 0 0 0 0 0 0 0 0 0 0 0 0 0 0 0 0 0 0 0 0 0 0 0 0 0 0 0 0 0 0
0 0 0 0 0 0 0 0 0 0 0 0 0 0 0 0 0 0 0 0 0 0 0 0 0 0 0 0 0 0 0 0 0 0 0 0 0 0 0 0 0 0 0 0
0 0 0 0 0 0 0 0 0 0 0 0 0 0 0 0 0 0 0 0 0 0 0 0 0 0 0 0 0 0 0 0 0 0 0 0 0 0 0 0 0 0 0 0
0 0 0 0 0 0 0 0 0 0 0 0 0 0 0 0 0 0 0 0 0 0 0 0 0 0 0 0 0 0 0 0 0 0 0 0 0 0 0 0 0 0 0 0
0 0 0 0 0 0 0 0 0 0 0 0 0 0 0 0 0 0 0 0 0 0 0 0 0 0 0 0 0 0 0 0 0 0 0 0 0 0 0 0 0 0 0 0
0 0 0 0 0 0 0 0 0 0 0 0 0 0 0 0 0 0 0 0 0 0 0 0 0 0 0 0 0 0 0 0 0 0 0 0 0 0 0 0 0 0 0 0
0 0 0 0 0 0 0 0 0 0 0 0 0 0 0 0 0 0 0 0 0 0 0 0 0 0 0 0 0 0 0 0 0 0 0 0 0 0 0 0 0 0 0 0
0 0 0 0 0 0 0 0 0 0 0 0 0 0 0 0 0 0 0 0 0 0 0 0 0 0 0 0 0 0 0 0 0 0 0 0 0 0 0 0 0 0 0 0
0 0 0 0 0 0 0 0 0 0 0 0 0 0 0 0 0 0 0 0 0 0 0 0 0 0 0 0 0 0 0 0 0 0 0 0 0 0 0 0 0 0 0 0
0 0 0 0 0 0 0 0 0 0 0 0 0 0 0 0 0 0 0 0 0 0 0 0 0 0 0 0 0 0 0 0 0 0 0 0 0 0 0 0 0 0 0 0
0 0 0 0 0 0 0 0 0 0 0 0 0 0 0 0 0 0 0 0 0 0 0 0 0 0 0 0 0 0 0 0 0 0 0 0 0 0 0 0 0 0 0 0
0 0 0 0 0 0 0 0 0 0 0 0 0 0 0 0 0 0 0 0 0 0 0 0 0 0 0 0 0 0 0 0 0 0 0 0 0 0 0 0 0 0 0 0
0 0 0 0 0 0 0 0 0 0 0 0 0 0 0 0 0 0 0 0 0 0 0 0 0 0 0 0 0 0 0 0 0 0 0 0 0 0 0 0 0 0 0 0
0 0 0 0 0 0 0 0 0 0 0 0 0 0 0 0 0 0 0 0 0 0 0 0 0 0 0 0 0 0 0 0 0 0 0 0 0 0 0 0 0 0 0 0
0 0 0 0 0 0 0 0 0 0 0 0 0 0 0 0 0 0 0 0 0 0 0 0 0 0 0 0 0 0 0 0 0 0 0 0 0 0 0 0 0 0 0 0
0 0 0 0 0 0 0 0 0 0 0 0 0 0 0 0 0 0 0 0 0 0 0 0 0 0 0 0 0 0 0 0 0 0 0 0 0 0 0 0 0 0 0 0
0 0 0 0 0 0 0 0 0 0 0 0 0 0 0 0 0 0 0 0 0 0 0 0 0 0 0 0 0 0 0 0 0 0 0 0 0 0 0 0 0 0 0 0
Wind_Speed
8 6 5 7 9 10 13 12 12 12 12 12 8 6 4 4 4 3 3 3 4 4 4 3 3 3 3 4 4 4 5 6 6 6 6 7 7 7 7 8 8 8 8 8
6 5 6 9 12 13 14 14 15 15 15 8 5 3 4 4 4 4 4 4 4 4 4 4 4 4 4 4 4 5 6 6 6 6 6 7 7 8 8 8 8 8 8 9
6 2 4 10 10 12 9 9 9 12 10 4 4 5 5 5 4 4 4 5 5 5 4 4 4 4 5 5 5 5 6 6 5 6 7 7 7 8 8 8 8 9 9 9
3 2 10 3 2 5 8 8 9 8 5 5 5 5 5 4 4 4 5 5 5 4 4 4 4 4 5 5 5 5 6 6 6 6 7 7 8 8 8 8 8 8 9 9
3 6 10 4 3 4 6 7 6 9 8 6 3 4 4 3 3 4 4 4 4 4 4 4 4 4 4 5 5 5 6 6 6 7 7 8 8 8 8 8 8 8 9 9
4 6 9 2 3 2 3 6 3 5 5 4 2 4 2 1 2 3 3 3 3 3 4 4 4 4 4 5 5 6 6 7 7 7 7 8 8 8 8 8 8 8 9 9
8 8 8 0 3 4 5 2 1 3 3 4 4 4 3 2 3 3 3 3 3 3 4 4 3 4 5 5 6 6 7 7 7 7 7 8 8 7 7 7 8 8 9 8
6 8 8 4 6 6 2 2 0 1 2 3 3 3 3 3 4 4 4 4 3 3 4 4 3 4 5 6 6 6 6 7 7 7 7 6 7 7 7 7 7 7 7 8
7 5 1 3 3 1 1 2 2 2 2 2 3 3 3 4 4 4 4 4 3 4 4 4 3 4 5 6 5 6 6 7 7 7 6 6 6 7 6 6 6 6 6 7
5 6 4 3 3 2 2 3 3 3 3 3 3 4 4 4 4 4 4 4 4 4 4 5 4 5 5 5 5 5 6 6 6 6 6 6 5 5 5 5 6 6 6 6
6 5 4 4 4 3 2 2 2 2 2 3 3 4 4 4 4 4 4 4 4 4 5 6 5 5 5 5 5 5 6 6 6 5 5 5 5 5 6 6 6 7 6 6
5 3 3 4 3 3 3 2 2 2 3 3 3 4 4 4 4 4 4 4 4 5 5 6 6 6 5 5 5 5 5 5 4 4 4 4 5 5 7 8 11 11 11 10
4 3 3 3 3 2 2 3 3 3 3 3 3 3 4 4 4 4 4 4 5 5 5 6 6 6 5 5 5 5 5 5 4 4 4 5 5 5 6 7 9 9 11 12
3 1 3 3 3 3 3 3 3 3 3 3 3 3 3 4 4 5 5 5 5 5 5 5 5 6 5 5 5 5 5 5 5 4 4 4 5 5 5 6 6 6 7 10
2 3 3 2 2 2 2 2 2 3 3 3 3 3 3 4 5 5 5 5 5 5 5 5 5 6 5 4 4 5 4 4 4 4 4 4 5 5 5 6 6 6 6 7
2 2 1 1 2 2 2 2 3 4 4 4 4 4 4 5 5 5 5 4 5 5 5 5 6 5 5 4 5 4 4 6 6 4 4 4 4 4 4 5 5 5 6 6
1 1 2 3 4 4 4 4 4 5 5 5 5 4 4 4 4 5 5 4 5 6 6 5 5 5 5 4 4 4 3 4 6 5 4 4 4 5 5 5 5 5 5 7
2 3 3 4 4 4 5 4 4 4 5 5 4 4 4 4 5 5 5 5 5 5 5 4 5 5 4 4 4 3 3 3 3 4 4 4 5 4 4 5 5 6 5 6
1 1 2 2 3 3 4 4 4 4 4 4 4 4 4 5 5 5 5 5 5 5 4 4 6 5 4 4 5 3 3 3 4 4 4 5 5 4 4 5 5 5 5 5
2 2 2 2 2 2 3 3 4 4 4 4 3 4 4 4 4 4 4 5 4 4 4 5 4 4 4 4 5 3 3 3 4 4 4 4 4 5 5 5 5 5 5 5
2 2 2 2 3 3 3 3 3 4 4 3 3 4 4 4 4 4 4 4 4 3 4 5 3 3 3 4 5 2 3 3 4 4 4 4 5 5 5 5 5 5 5 5
2 2 2 2 3 3 3 3 3 3 3 3 3 3 3 4 4 3 4 4 4 5 4 3 3 4 5 5 3 3 3 3 4 4 4 4 5 5 5 5 5 5 6 6
2 2 2 3 3 3 4 3 3 3 3 3 3 4 4 4 3 3 3 3 3 5 5 3 5 7 7 4 3 3 3 4 4 4 4 5 5 5 5 6 5 6 6 6
2 2 3 3 2 2 3 4 3 3 3 3 3 3 3 3 3 3 3 4 6 6 4 5 7 7 6 3 3 3 3 4 4 4 5 5 5 5 5 6 6 6 6 7
2 2 2 2 2 3 3 4 4 3 3 3 3 3 3 2 3 3 3 3 5 6 4 5 7 7 4 3 3 4 4 4 5 5 5 5 5 5 6 6 6 6 6 6
2 2 2 2 2 2 2 2 3 3 3 3 3 3 3 3 3 3 3 3 4 5 4 3 4 5 3 3 4 4 4 5 5 5 5 5 6 6 6 6 8 6 6 6
2 2 2 2 2 2 2 2 3 3 3 3 4 4 4 3 3 3 3 3 3 3 3 3 3 3 4 4 4 4 4 4 5 5 5 5 5 6 6 7 6 6 6 6
Wind_Direction
271 278 259 250 240 220 223 235 246 258 261 273 275 271 273 275 267 263 267 276 282 285 281 277 278 284 291 299 302 302 296 286 286 292 293 295 297 298 300 299 299 300 298 297
262 256 254 263 252 236 236 243 248 261 269 282 282 274 267 260 254 256 268 282 288 286 280 276 280 289 294 299 301 299 292 283 283 288 290 292 295 296 297 297 299 298 296 296
259 270 276 257 237 219 217 221 226 242 255 266 269 260 259 259 250 256 276 287 285 279 273 274 279 285 289 295 298 295 292 286 282 286 289 292 295 294 295 297 297 296 295 294
259 254 246 252 79 199 215 230 228 246 265 269 275 288 277 262 249 265 282 290 285 279 276 280 283 287 294 295 292 291 295 297 293 290 290 293 293 293 295 296 295 294 295 295
224 252 267 254 186 181 214 251 224 237 255 270 288 290 264 239 253 271 285 288 285 280 278 281 285 294 291 287 290 292 297 299 300 292 290 291 291 293 294 294 292 294 295 295
216 243 256 258 128 146 192 255 196 217 236 245 238 262 281 10 297 293 299 295 290 289 288 287 292 290 282 285 291 294 298 298 297 294 291 290 289 288 289 290 289 294 294 294
227 243 261 63 139 169 216 282 115 206 220 213 238 280 319 317 309 306 305 298 292 287 282 285 292 285 282 287 289 296 298 296 296 295 292 289 289 287 287 288 291 291 291 291
207 227 246 135 155 200 271 7 321 247 240 245 263 286 297 301 302 306 308 307 299 291 290 294 291 284 285 289 298 302 299 297 297 297 295 292 291 291 288 287 288 291 293 296
209 227 15 160 203 253 310 282 290 279 266 248 264 277 290 297 299 300 303 304 299 288 289 295 291 284 285 295 304 302 301 299 299 298 295 293 291 292 293 290 288 293 295 299
248 259 270 254 258 276 283 286 290 274 260 259 264 273 285 289 293 298 299 302 301 294 294 301 302 295 293 299 300 299 298 299 299 300 300 299 294 290 292 294 293 292 296 301
253 278 297 261 252 259 285 296 296 292 274 256 255 268 276 283 286 287 292 297 297 293 294 300 305 302 304 302 300 298 297 296 299 300 302 302 297 294 292 288 296 305 305 304
252 251 252 274 274 268 262 275 276 279 287 278 262 267 277 281 283 283 285 292 293 293 295 300 304 302 305 305 301 298 298 299 300 301 302 303 303 303 299 300 305 307 308 310
273 306 290 288 289 277 275 283 286 280 275 285 285 275 277 282 283 283 284 287 288 289 291 296 299 299 304 307 301 295 295 298 296 298 300 301 302 304 308 311 310 310 312 315
264 287 282 274 282 295 296 306 308 302 296 289 285 285 283 283 284 282 283 287 289 290 289 291 294 297 304 305 299 297 298 297 297 294 297 298 299 300 302 306 310 312 316 318
284 288 274 292 302 309 310 314 312 303 304 305 298 285 280 280 281 284 289 292 291 289 290 293 294 298 307 300 296 297 300 302 304 302 299 297 298 297 298 300 302 307 313 320
315 321 289 268 280 291 294 293 289 288 292 293 292 288 282 280 282 285 287 287 285 287 290 290 290 298 306 301 298 295 296 308 313 308 305 305 303 299 299 301 304 307 312 320
195 263 267 274 275 280 279 278 274 277 281 280 283 285 283 283 286 287 290 291 286 282 282 281 287 297 298 297 298 298 302 306 312 310 306 304 303 301 298 298 302 305 308 313
257 254 245 248 255 268 280 285 281 281 280 280 281 272 269 272 279 288 295 299 298 294 289 287 290 295 297 299 299 295 295 300 304 306 308 308 307 304 301 301 304 305 307 313
314 290 276 276 274 267 270 277 282 286 287 281 273 271 272 273 278 286 293 294 293 296 301 301 301 302 299 299 304 290 290 298 303 306 306 308 311 310 306 303 302 304 306 310
346 340 325 314 309 292 283 286 287 285 283 278 276 279 283 285 285 287 288 283 278 285 294 296 299 298 299 294 298 291 295 299 301 302 304 304 305 307 307 305 304 306 309 310
343 339 333 323 315 308 295 287 279 279 286 280 271 274 282 289 286 281 283 290 299 298 295 298 303 300 297 293 297 295 295 296 296 297 298 299 301 304 307 307 309 309 309 309
326 321 319 317 315 314 312 302 287 283 288 286 284 281 284 289 293 289 277 275 293 307 311 302 300 299 304 306 300 295 293 292 290 290 292 295 298 301 304 306 305 306 306 307
317 313 313 312 312 313 317 315 305 293 287 287 284 281 281 285 287 287 298 299 298 304 308 298 300 306 314 315 301 295 293 290 288 289 291 293 294 296 298 300 299 301 303 305
321 323 323 325 327 327 326 326 324 316 307 301 293 288 286 290 294 284 283 300 307 308 304 299 308 312 318 314 301 296 292 290 289 289 290 290 291 292 293 295 295 297 298 300
320 324 332 333 325 317 319 327 331 330 328 320 318 314 302 291 291 303 303 297 301 310 307 306 310 314 314 302 296 291 289 287 289 291 289 291 291 292 291 292 291 293 294 294
323 318 311 307 309 316 320 322 323 325 327 326 326 324 322 315 304 300 301 300 300 306 307 303 305 307 302 297 294 292 290 293 296 295 291 290 289 289 289 292 293 291 291 291
336 335 329 334 336 331 325 321 320 320 322 317 315 320 323 321 317 314 311 307 306 306 304 302 302 301 299 297 296 294 293 292 290 289 290 289 288 288 289 291 290 289 289 289